KEQY

Details ICAO KEQY
Name Monroe Rgnl
Region United States
Timezone America/New_York (UTC-4.0)
Plans Departing 43
Arriving 35
Stats Elevation 679 ft / 207 m (AMSL)
Location 35.018803° -80.620231°
Runways 1
Magnetic Variation 7.893° W
Sunrise 2018-05-22 10:15:37 UTC / 2018-05-22 06:15:37 Local
Sunset 2018-05-23 00:25:34 UTC / 2018-05-22 20:25:34 Local
Advertisement - Login to hide

Runways

ID Width Length Bearing (true) Bearing (mag) Surface Threshold Offset Overrun Length
05 98 ft / 30 m 5,501 ft / 1,677 m 46.87° 54.76° Asphalt 0 ft / 0 m 0 ft / 0 m
23 98 ft / 30 m 5,501 ft / 1,677 m 226.87° 234.76° Asphalt 0 ft / 0 m 0 ft / 0 m

Approach Navaids

Runway Type Ident Frequency Range Bearing (true) Bearing (mag) Slope Elevation
05 Localiser IEQY 109.75 MHz 18 nm / 33 km 46.90° 54.79° - 679 ft / 207 m (AMSL)
05 Glidescope IEQY 109.75 MHz 10 nm / 19 km 46.90° 54.79° 3.00° 679 ft / 207 m (AMSL)

Map

Weather


0- 5 10 15 20 25 30 35+ Temperature / ° C

Clouds and Precipitation
Forecast for 2018-05-22 18:00 UTC. Updated an hour ago

Ground ~20,000 ft ~40,000 ft Winds

METAR

KEQY 221753Z AUTO 00000KT 10SM FEW045 29/19 A3011 RMK AO2 SLP194 T02890189 10289 20217 58016

TAF

Not found

Frequencies

Recorded 135.77 MHz ASOS
Clearance 132.55 MHz CLNC DEL
Unicom 122.70 MHz CTAF/UNICOM
Approach 120.05 MHz CHARLOTTE APP/DEP
Warning: Do not use this data for real-world aviation or navigation. No guarantee of current accuracy is given.